Location: Unspecified
(0.0000°N, 0.0000°E)
Time: 11:23:58
(UTC+01:00)

IUS-9 SRM-1 - Visible Passes

Search period start: 24 February 2017 00:00
Search period end: 06 March 2017 00:00
Orbit: 242 x 19852 km, 26.4° (Epoch: 22 February)

Date Brightness Start Highest point End Pass type
(mag) Time Alt. Az. Time Alt. Az. Time Alt. Az.
24 Feb 8.0 16:49:52 10° SW 19:53:50 80° ESE 21:25:39 32° ENE visible
25 Feb 8.2 16:02:03 10° SW 18:47:31 68° ESE 20:42:37 20° ENE visible
26 Feb 8.5 02:08:05 10° WNW 02:31:47 16° WNW 02:31:47 16° WNW visible
26 Feb 8.3 15:14:49 10° SW 17:40:23 56° ESE 19:58:08 10° ENE visible
26 Feb 8.3 22:52:58 10° WSW 01:48:38 27° WNW 01:48:38 27° WNW visible
27 Feb 8.1 21:24:17 10° WSW 01:05:26 38° NW 01:05:26 38° NW visible
28 Feb 7.9 20:19:45 10° WSW 00:19:10 48° NW 00:22:11 48° NNW visible
01 Mar 7.7 19:23:00 10° WSW 23:21:10 57° NW 23:38:53 52° N visible
02 Mar 7.7 18:30:04 10° WSW 22:12:37 68° NW 22:55:32 48° NNE visible
03 Mar 7.8 17:39:20 10° SW 20:51:07 79° WNW 22:12:07 38° NE visible
04 Mar 8.0 16:50:00 10° SW 19:38:35 88° ESE 21:28:37 27° NE visible
05 Mar 8.1 16:01:35 10° SW 18:32:00 75° ESE 20:45:03 15° ENE visible
